When you browse on this site, cookies collect data to enhance your experience and personalize the content and advertising you see.
Visit our Privacy Policy to learn more. By continuing to use the site, you agree to this use of cookies and data.
  • In Hungary
  • List of Countries
  • For 7 days
  • Water Temperature
  • Satellite Maps
  • Weather Map
  • News
  • Weather Widgets
  • user-avatar
    Login

    Hourly Weather Monroe

    Today, 23 July, Tuesday

    Time Temperature Precipitation Wind Pressure Humidity
    00:00 +27°C° 0.7 mm 3 mps 743 mmHg 77%
    01:00 +26°C° 0.7 mm 3 mps 743 mmHg 80%
    02:00 +26°C° 0.2 mm 3 mps 742 mmHg 83%
    03:00 +25°C° 0.2 mm 2 mps 742 mmHg 86%
    04:00 +25°C° 0.2 mm 2 mps 742 mmHg 89%
    05:00 +25°C° 0.2 mm 3 mps 742 mmHg 88%
    06:00 +25°C° 0.2 mm 3 mps 742 mmHg 88%
    07:00 +26°C° 0.2 mm 3 mps 742 mmHg 87%
    08:00 +27°C° 0.8 mm 3 mps 742 mmHg 82%
    09:00 +28°C° 0.8 mm 3 mps 742 mmHg 77%
    10:00 +30°C° 0.8 mm 3 mps 742 mmHg 73%
    11:00 +28°C° 2.8 mm 4 mps 742 mmHg 77%
    12:00 +27°C° 2.8 mm 4 mps 742 mmHg 82%
    13:00 +26°C° 2.8 mm 4 mps 742 mmHg 86%
    14:00 +23°C° 8.3 mm 4 mps 742 mmHg 89%
    15:00 +22°C° 8.3 mm 3 mps 742 mmHg 92%
    16:00 +20°C° 8.3 mm 3 mps 742 mmHg 94%
    17:00 +21°C° 0.9 mm 2 mps 742 mmHg 94%
    18:00 +21°C° 0.9 mm 2 mps 742 mmHg 93%
    19:00 +21°C° 0.9 mm 2 mps 742 mmHg 92%
    20:00 +21°C° 0 mm 2 mps 743 mmHg 93%
    21:00 +21°C° 0 mm 1 mps 743 mmHg 94%
    22:00 +21°C° 0 mm 1 mps 744 mmHg 95%
    23:00 +21°C° 0 mm 1 mps 744 mmHg 95%

    Tomorrow, 24 July, Wednesday

    Time Temperature Precipitation Wind Pressure Humidity
    00:00 +21°C° 0 mm 1 mps 744 mmHg 95%
    01:00 +21°C° 0 mm 1 mps 744 mmHg 95%
    02:00 +20°C° 0 mm 2 mps 743 mmHg 93%
    03:00 +19°C° 0 mm 2 mps 743 mmHg 91%
    04:00 +19°C° 0 mm 3 mps 743 mmHg 89%
    05:00 +19°C° 0 mm 3 mps 744 mmHg 85%
    06:00 +19°C° 0 mm 3 mps 744 mmHg 81%
    07:00 +19°C° 0 mm 4 mps 745 mmHg 77%
    08:00 +21°C° 0 mm 4 mps 745 mmHg 69%
    09:00 +23°C° 0 mm 4 mps 746 mmHg 61%
    10:00 +26°C° 0 mm 4 mps 746 mmHg 53%
    11:00 +27°C° 0 mm 3 mps 746 mmHg 49%
    12:00 +28°C° 0 mm 3 mps 746 mmHg 45%
    13:00 +30°C° 0 mm 3 mps 745 mmHg 41%
    14:00 +30°C° 0 mm 3 mps 745 mmHg 40%
    15:00 +30°C° 0 mm 3 mps 745 mmHg 39%
    16:00 +30°C° 0 mm 3 mps 744 mmHg 38%
    17:00 +28°C° 0 mm 2 mps 745 mmHg 45%
    18:00 +27°C° 0 mm 2 mps 745 mmHg 51%
    19:00 +25°C° 0 mm 1 mps 745 mmHg 58%
    20:00 +24°C° 0 mm 1 mps 745 mmHg 59%
    21:00 +24°C° 0 mm 1 mps 746 mmHg 59%
    22:00 +23°C° 0 mm 1 mps 746 mmHg 60%
    23:00 +22°C° 0 mm 1 mps 746 mmHg 63%

    Day after tomorrow, 25 July, Thursday

    Time Temperature Precipitation Wind Pressure Humidity
    00:00 +22°C° 0 mm 1 mps 746 mmHg 66%
    01:00 +21°C° 0 mm 1 mps 746 mmHg 69%
    02:00 +21°C° 0 mm 1 mps 746 mmHg 72%
    03:00 +19°C° 0 mm 2 mps 746 mmHg 75%
    04:00 +19°C° 0 mm 2 mps 747 mmHg 78%
    05:00 +19°C° 0 mm 2 mps 747 mmHg 77%
    06:00 +20°C° 0 mm 2 mps 748 mmHg 77%
    07:00 +21°C° 0 mm 3 mps 748 mmHg 76%
    08:00 +24°C° 0 mm 3 mps 748 mmHg 70%
    09:00 +26°C° 0 mm 3 mps 749 mmHg 63%
    10:00 +28°C° 0 mm 3 mps 749 mmHg 57%
    11:00 +29°C° 0 mm 3 mps 749 mmHg 52%
    12:00 +30°C° 0 mm 3 mps 748 mmHg 48%
    13:00 +31°C° 0 mm 3 mps 748 mmHg 43%
    14:00 +31°C° 0 mm 3 mps 748 mmHg 44%
    15:00 +31°C° 0 mm 3 mps 748 mmHg 44%
    16:00 +31°C° 0 mm 3 mps 748 mmHg 44%
    17:00 +29°C° 0 mm 3 mps 748 mmHg 51%
    18:00 +28°C° 0 mm 2 mps 748 mmHg 57%
    19:00 +26°C° 0 mm 2 mps 749 mmHg 64%
    20:00 +25°C° 0 mm 2 mps 749 mmHg 65%
    21:00 +24°C° 0 mm 2 mps 749 mmHg 66%
    22:00 +23°C° 0 mm 1 mps 749 mmHg 67%
    23:00 +23°C° 0 mm 1 mps 750 mmHg 69%

    26 July, Friday

    Time Temperature Precipitation Wind Pressure Humidity
    00:00 +22°C° 0 mm 1 mps 750 mmHg 71%
    01:00 +22°C° 0 mm 1 mps 750 mmHg 72%
    02:00 +21°C° 0 mm 1 mps 750 mmHg 76%
    03:00 +21°C° 0 mm 1 mps 750 mmHg 79%
    04:00 +20°C° 0 mm 2 mps 750 mmHg 83%
    05:00 +20°C° 0 mm 2 mps 750 mmHg 83%
    06:00 +21°C° 0 mm 2 mps 751 mmHg 82%
    07:00 +21°C° 0 mm 3 mps 751 mmHg 82%
    08:00 +24°C° 0 mm 3 mps 751 mmHg 74%
    09:00 +26°C° 0 mm 3 mps 752 mmHg 66%
    10:00 +28°C° 0 mm 3 mps 752 mmHg 58%
    11:00 +29°C° 0 mm 3 mps 752 mmHg 54%
    12:00 +30°C° 0 mm 3 mps 752 mmHg 49%
    13:00 +31°C° 0 mm 3 mps 751 mmHg 44%
    14:00 +31°C° 0 mm 3 mps 751 mmHg 44%
    15:00 +31°C° 0 mm 3 mps 751 mmHg 44%
    16:00 +31°C° 0 mm 3 mps 750 mmHg 44%
    17:00 +29°C° 0 mm 2 mps 750 mmHg 51%
    18:00 +28°C° 0 mm 2 mps 751 mmHg 57%
    19:00 +27°C° 0 mm 1 mps 751 mmHg 63%
    20:00 +26°C° 0 mm 1 mps 751 mmHg 64%
    21:00 +25°C° 0 mm 1 mps 751 mmHg 66%
    22:00 +24°C° 0 mm 1 mps 752 mmHg 67%
    23:00 +23°C° 0 mm 1 mps 751 mmHg 70%

    27 July, Saturday

    Time Temperature Precipitation Wind Pressure Humidity
    00:00 +23°C° 0 mm 1 mps 751 mmHg 72%
    01:00 +22°C° 0 mm 1 mps 751 mmHg 74%
    02:00 +22°C° 0 mm 1 mps 752 mmHg 77%
    03:00 +22°C° 0 mm 1 mps 752 mmHg 79%
    04:00 +22°C° 0 mm 1 mps 752 mmHg 81%
    05:00 +22°C° 0 mm 1 mps 752 mmHg 81%
    06:00 +21°C° 0 mm 2 mps 752 mmHg 80%
    07:00 +23°C° 0 mm 2 mps 753 mmHg 80%
    08:00 +25°C° 0 mm 2 mps 753 mmHg 73%
    09:00 +27°C° 0 mm 3 mps 753 mmHg 65%
    10:00 +29°C° 0 mm 3 mps 753 mmHg 58%
    11:00 +30°C° 0 mm 3 mps 753 mmHg 53%
    12:00 +31°C° 0 mm 3 mps 753 mmHg 49%
    13:00 +33°C° 0 mm 3 mps 752 mmHg 44%
    14:00 +33°C° 0 mm 3 mps 752 mmHg 43%
    15:00 +32°C° 0 mm 2 mps 752 mmHg 42%
    16:00 +32°C° 0 mm 2 mps 751 mmHg 42%
    17:00 +30°C° 0 mm 2 mps 751 mmHg 47%
    18:00 +29°C° 0 mm 1 mps 751 mmHg 53%
    19:00 +27°C° 0 mm 1 mps 751 mmHg 59%
    20:00 +26°C° 0 mm 1 mps 751 mmHg 62%
    21:00 +24°C° 0 mm 1 mps 752 mmHg 65%
    22:00 +23°C° 0 mm 1 mps 752 mmHg 68%
    23:00 +23°C° 0 mm 1 mps 752 mmHg 68%

    28 July, Sunday

    Time Temperature Precipitation Wind Pressure Humidity
    00:00 +20°C° 0 mm 0 mps 752 mmHg 69%
    01:00 +20°C° 0 mm 0 mps 752 mmHg 69%
    02:00 +19°C° 0 mm 0 mps 752 mmHg 69%
    03:00 +21°C° 0 mm 1 mps 752 mmHg 70%
    04:00 +21°C° 0 mm 1 mps 752 mmHg 70%
    05:00 +22°C° 0 mm 1 mps 752 mmHg 70%
    06:00 +22°C° 0 mm 1 mps 752 mmHg 70%
    07:00 +23°C° 0 mm 1 mps 752 mmHg 71%
    08:00 +25°C° 0 mm 1 mps 752 mmHg 64%
    09:00 +28°C° 0 mm 1 mps 752 mmHg 57%
    10:00 +30°C° 0 mm 1 mps 752 mmHg 50%
    11:00 +31°C° 0 mm 1 mps 752 mmHg 45%
    12:00 +32°C° 0 mm 2 mps 752 mmHg 41%
    13:00 +34°C° 0 mm 2 mps 751 mmHg 37%
    14:00 +34°C° 0 mm 2 mps 751 mmHg 36%
    15:00 +34°C° 0 mm 2 mps 750 mmHg 35%
    16:00 +33°C° 0 mm 1 mps 750 mmHg 34%
    17:00 +31°C° 0 mm 1 mps 750 mmHg 40%
    18:00 +29°C° 0 mm 1 mps 749 mmHg 46%
    19:00 +28°C° 0 mm 1 mps 749 mmHg 52%
    20:00 +26°C° 0 mm 1 mps 750 mmHg 54%
    21:00 +25°C° 0 mm 1 mps 750 mmHg 56%
    22:00 +24°C° 0 mm 1 mps 750 mmHg 58%
    23:00 +24°C° 0 mm 1 mps 750 mmHg 62%
    Show more